Showing default

CORVUS BC1, 42847

Orbit data source: Space-Track

CORVUS BC1, 42847 is a payload satellite owned by Astro Digital (US) in SSO that was launched on Fri, 14 Jul 2017 UTC via a SOYUZ-2-1A launch vehicle from the Tyuratam Missile And Space Complex (TTMTR). Payload-class satellites include a variety of spacecraft equipped with specific instruments for various scientific and technological missions. These include communications satellites like Starlink; space stations such as the ISS; scientific satellites like the Hubble; Earth observation satellites from companies like Planet Labs, Umbra, and HawkEye 360; GPS; miniature CubeSats for education and research; and military/defense satellites.

Loading next visibility...
Identifier
42847, 2017-042Y
Orbit
SSO
Country
Flag of USUS
Related business
Manufacturer
Astro Digital
Mission
Operational Commercial Imaging
Bus & Motor
CUBESAT 6U, Unknown motor
Mass
10 kg wet, 10 kg dry
Launch date (UTC)
2017-07-14 (8 years ago)
Launch vehicle
SOYUZ-2-1A
Launch site
Tyuratam Missile And Space Complex (TTMTR)
Object type
Payload
Rocket body
Debris
Shape & HBR
Box + 2 Pan, 0.2 m
Radar Cross Section
0.092 m², Medium (>0.1 m² and < 1m²)

Expand to show TLE details & history
Last TLE update: 1 day ago

TLE from 1 day ago
0 CORVUS BC1
1 42847U 17042Y   25338.41395212  .00009859  00000-0  69982-3 0  9995
2 42847  97.3870 143.4752 0012964  38.6198 321.5953 15.04855390457783
Epoch: 2025-12-04T09:56Z
TLE epoch observation values (Epoch: 2025-12-04T09:56:05.463Z)
Latitude
-0.00007°
Longitude
-79.0183°
Altitude
547.983 km
Speed
7.592 km/s
True Right ascension
09h 33m 54s
True Declination
0° 00' 00"
Sunlit
Object was in daylight at epoch
Visualization orbit readout
Latitude
Unknown
Longitude
Unknown
Altitude
Unknown
Speed
Unknown
Apparent Right ascension
Unknown
Apparent Declination
Unknown
Sunlit
N/A
Visualization observer readout
Local Sidereal Time
12:12:23
Azimuth
Unknown
Elevation
Unknown
Doppler factor
Unknown
Orbital elements
Apogee altitude
557.915 km
Perigee altitude
539.955 km
Semi-major axis
6,927.072 km
Eccentricity
0.0013
Inclination
97.387°
RAAN
143.4752°
Arg. of periapsis
38.6198°
True anomaly
321.5029°
Mean anomaly
321.5953°
Eccentric anomaly
321.54911°
Mean motion
3.7646 °/min
Orbital period
95.63 mins
BSTAR
0.00069982
Loading maneuver chart data...
Computing Atmospheric mass density...

Documentation

Showing up to 5 results
|